Погода в Горки

Погода в Горки : погода сейчас, прогноз погоды и архив. Всё, что Вы хотите узнать о погоде в Горки!

Хотите узнать прогноз погоды в Горки? Тогда Вам сюда: Погода в Горки

Поиск расширенной информации на нашем сайте:

Другие новости

Новости СМИ2

Главная страница сайта

Новости сайта

03.07.2017

Напоминаем, что на нашем специализированном сайте Метеоцентр.Азия вы можете получить высокодетализированные автоматические прогнозы погоды по пунктам России, СНГ и мира в авиационном формате (включающие направление и скорость ветра, видимость, явления погоды, количество и форму облачности, нижнюю и верхнюю границу облачности).


Погода в Горки - сегодня

Время (UTC), дата Ветер
(°,м/с) 
Видим.   Явления Облачность Т
(°С)
Тd
(°С)
f(%) Тe
(°С)
Pmin
(гПа)
dP
(гПа)
Po
(мм)
O2
(г/м3)
Тmin Tmax R s Состояние
почвы
09 11.12.17 120 (ЮВ) 5000 м  дымка  9/0 средняя, верхняя 
[Ac und|Ci fib]
-5.8 -6.6 94 -5  1005.9  1.4  735  303           
12 11.12.17 120 (ЮВ) 4100 м  слаб. снег  10/0 средняя 
[As op]
-2.6 -3.8 91 -5  1005.6  735  300           
15 11.12.17 130 (ЮВ) 9000 м  дымка{снег}  9/0 средняя 
[Ac und]
-2.5 -3.5 93 -6  1006.5  0.9  736  300      0.0     
18 11.12.17 130 (ЮВ) 9000 м  дымка{снег}  9/9 300 м 
[Frnb]
-2.1 -3.2 92 -5  1008  1.5  737  300    -2.1  0.0  13   
21 11.12.17 110 (В) 3700 м  дымка  10/10 210 м 
[Frnb]
-1.7 -2.2 96 -5  1008.2  0.2  737  299           
00 12.12.17 120 (ЮВ) 3000 м  дымка  10/10 210 м 
[Frnb]
-1.4 -1.8 97 -5  1008.6  0.5  738  299           
03 12.12.17 100 (В) 1300 м  дымка  10/10 150 м 
[Frnb]
-1.8 -2.1 98 -6  1008.6  -0.1  738  299        13   
06 12.12.17 090 (В) 3800 м  дымка  10/10 120 м 
[St]
-1 -1.4 97 -4  1007.4  -1.1  737  298  -2.1      13  равномерный
сухой снег
100% 
09 12.12.17 090 (В) 5000 м  в посл. час морось  10/10 150 м 
[St]
+0.4 -0.3 95 -3  1006.2  -1  736  296           
12 12.12.17 120 (ЮВ) 7000 м  дымка{морось}  10/10 180 м 
[Frnb]
+0.8 +0 94 -3  1005.8  -0.4  736  295           
18 12.12.17 130 (ЮВ) 9000 м  дымка  10/10 150 м 
[Frnb]
+1.4 +0.6 94 -1  1006.1  0.2  736  295    +1.4  0.2   
21 12.12.17 130 (ЮВ) 9000 м  дымка  9/9 870 м 
[Sc]
+2.1 +1.1 93 1007.2  1.1  737  294           
00 13.12.17 130 (ЮВ) 6000 м  дымка  6/6 600 м 
[Sc]
+0.8 +0.3 96 -1  1007.4  0.1  737  296           
03 13.12.17 200 (Ю) 9000 м  дымка  9/9 840 м 
[Sc]
+1.8 +1.3 96 1008.5  1.2  738  295         
06 13.12.17 210 (ЮЗ) 20000 м    10/10 930 м 
[Sc]
+2.3 -0.8 80 +1  1010.8  2.2  739  296  +0.3      равномерный
мокрый или
старый снег
100% 
09 13.12.17 190 (Ю) 17000 м    9/0 средняя 
[Ac und]
+1.6 -1.1 82 1012.7  1.8  741  297           
12 13.12.17 190 (Ю) 20000 м    9/0 средняя 
[Ac und]
+1.3 -1.5 82 1013  0.3  741  297           
15 13.12.17 170 (Ю) 15000 м    9/0 средняя 
[Ac und]
-0.5 -2.1 89 -1  1014.2  742  300           
18 13.12.17 190 (Ю) 12000 м    3/0 верхняя 
[Ci fib]
-2.3 -3.2 94 -3  1014.7  0.3  742  302    +2.3     
21 13.12.17 180 (Ю) 0300 м  переохл. туман [диам. изморози 2 мм]  ясно 
-5.3 -5.3 100 -5  1014.8  -0.2  742  305           
00 14.12.17 110 (В) 0200 м  переохл. туман [диам. изморози 6 мм]  ясно 
-8.1 -7.9 100 -8  1014.4  -0.6  741  309           
03 14.12.17 010 (С) 0200 м  переохл. туман [диам. изморози 8 мм]  ясно 
-9.3 -9.6 98 -9  1012.5  -2  740  310         
06 14.12.17 070 (В) 3700 м  дымка{туман} [диам. изморози 9 мм]  8/0 средняя 
[Ac und]
-7.8 -8.8 93 -8  1010.8  -1.5  739  307  -9.8      равномерный
мокрый или
старый снег
100% 
09 14.12.17 060 (СВ) 5000 м  дымка [диам. изморози 9 мм]  9/9 630 м 
[Sc]
-4.2 -4.9 95 -4  1009.1  -1.3  738  302           
12 14.12.17 070 (В) 4800 м  дымка [диам. изморози 9 мм]  9/9 600 м 
[Sc]
-2.1 -2.5 97 -3  1005.8  -3  736  299           
Время (UTC), дата Ветер
(°,м/с) 
Видим.   Явления Облачность Т
(°С)
Тd
(°С)
f(%) Тe
(°С)
Pmin
(гПа)
dP
(гПа)
Po
(мм)
O2
(г/м3)
Тmin Tmax R s Состояние
почвы

Для получения пояснительной информации подведите курсор к названию столбца.

ПОГОДА в Горки - архив

Всё, что Вы хотите узнать о погоде в Горки - удобно и подробно!

Выберите нужную дату (начиная с 1 января 2015* года) и нажмите кнопку "Найти".
Будут отображены архивные сводки погоды по пункту Горки, начиная с указанной даты.


Отображать данные в формате CSV (для использования в таблицах Excel)


Внимание! Наш архив погоды предназначен исключительно для личного некоммерческого использования в познавательных целях. Если Вам необходимы официальные справки о состоянии погоды (для производственных, юридических, коммерческих и т.п. целей), обращайтесь в органы Росгидромета.

*Примечание: данная дата относится к архиву по метеостанциям СССР (Россия, СНГ, Балтия).
Архив по метеостанциям Зарубежной Европы и Азии (кроме Китая) хранится 10 дней, по другим регионам земного шара (Китай, Африка, Америка, Австралия, Океания) - 1 день.

Горки - район местоположения метеостанции


Название, широта, долгота, высота метеостанции:
Горки 54.3°ш. 30.9°д. 205 м над ур. моря [Беларусь]

Дополнительная информация

В oтличие oт бoльшинства пoгoдных сайтoв мы публикуем пoдрoбную метеoинфoрмацию в детальнoм прoфессиoнальнoм фoрмате.

Характеристики температуры и влажнoсти вoздуха измеряются на высoте 2 м в тени вдали oт зданий и деревьев.
Скoрoсть ветра измеряется на высoте 10 м (на урoвне рoста челoвека скoрoсть ветра ниже в 1.5-2 раза). Если метеoстанция нахoдится в гoрoде или в лесу, тo скoрoсть ветра занижена на 2-4 м/с пo сравнению с oткрытым местoм. Скoрoсть ветра над акватoриями крупных рек и oзёр, а также на вершинах хoлмoв на 2-5 м/с выше, чем в oбычных услoвиях.
Атмoсфернoе давление в разных тoчках местнoсти мoжет значительнo oтличаться oт давления на метеoстанции, в зависимoсти oт услoвий рельефа (при пoдъёме на 10 м давление пoнижается примернo на 1 мм рт.ст.).